Torna al catalogo

STARLINK-5670

AttivoComunicazioniVLEO
NORAD 55341·PAYLOAD·🇺🇸 United States

Lanciato Jan 26, 2023 da Cape Canaveral Space Force Station

Loading…

Prossimi Passaggi (prossime 24 ore)

TLE

AggiornatoSource: CelesTrak SupGP

Epoca: Sep 15, 2026, 02:04 UTC

1 55341C 23013L   26258.08659722  .00032185  00000+0  11659-2 0  2589
2 55341  43.0030 314.1165 0001634 281.2072 145.2358 15.27557211    12

Traccia STARLINK-5670 in tempo reale con AllMySat

Download on the App Store